Tracking 19562 objects as of 23-Mar-2019
HD Live streaming from Space Station
objects crossing your sky now

GAOFEN 1-03

Track GAOFEN 1-03 now!
10-day predictions


NORAD ID: 43260
Int'l Code: 2018-031B
Perigee: 645.1 km
Apogee: 650.4 km
Inclination: 98.0 °
Period: 97.5 minutes
Semi major axis: 7018 km
RCS: Unknown
Launch date: March 31, 2018
Source: People's Republic of China (PRC)
Launch site: Taiyaun Space Center, China (TSC)
aabbcc
Your satellite tracking list
Your tracking list is empty




NASA's NSSDC Master Catalog

Two Line Element Set (TLE):
1 43260U 18031B   19081.78251074  .00000034  00000-0  12270-4 0  9994
2 43260  98.0019 160.2823 0003740 292.0164  68.0645 14.76429443 52622
Source of the keplerian elements: AFSPC